Regional Weather Roundup
Issued by NWS State College, PA

Home | Current Version | Previous Version | Text Only | Print | Product List | Glossary On
Versions: 1 2 3 4 5 6 7 8 9 10 11 12 13 14 15 16 17 18 19 20 21 22 23 24 25 26 27 28 29 30 31 32 33 34 35 36 37 38 39 40 41 42 43 44 45 46 47 48 49 50
000
ASUS41 KCTP 211810
RWRCTP

REGIONAL WEATHER ROUNDUP
NATIONAL WEATHER SERVICE STATE COLLEGE PA
200 PM EDT SUN MAY 21 2017

Note: "fair" indicates few or no clouds below 12,000 feet with no
significant weather and/or obstructions to visibility.

* = STATION THAT DOES NOT REPORT PRECIPITATION /E.G. RAIN...SNOW...ETC/
    THUNDER OR FOG.

PAZ002>004-007>009-013>016-020>023-029>032-211900-
WESTERN PENNSYLVANIA

CITY           SKY/WX    TMP DP  RH WIND       PRES   REMARKS
ERIE           LGT RAIN  69  63  81 S7        30.00F
MEADVILLE      CLOUDY    72  62  71 VRB5      30.04F
FRANKLIN*      CLOUDY    70  57  64 SE12      30.07F
NEW CASTLE     HVY RAIN  70  66  87 SW8       30.06S
BEAVER COUNTY  CLOUDY    72  64  78 S10G17    30.06F
BUTLER*        CLOUDY    66  63  88 SE5       30.08F
PITTSBURGH INT LGT RAIN  74  66  76 SW8       30.06F
PITTSBURGH     CLOUDY    75  60  59 S8        30.05F
INDIANA*       PTSUNNY   70  57  64 S14G21    30.15F
LATROBE        PTSUNNY   72  59  64 S12G21    30.10F
WASHINGTON CO* CLOUDY    70  63  78 SW10G21   30.10S
$$

PAZ004>006-010>012-017>019-024>028-033>037-041-042-045-046-049>053-211900-
CENTRAL PENNSYLVANIA

CITY           SKY/WX    TMP DP  RH WIND       PRES   REMARKS
BRADFORD       CLOUDY    65  53  65 SE10      30.15S
DUBOIS         CLOUDY    64  49  57 SE13G24   30.13F
CLEARFIELD     CLOUDY    64  42  44 SE8       30.20F
JOHNSTOWN      MOSUNNY   62  52  69 SE15G22   30.18F
ALTOONA        CLOUDY    61  39  44 SE8       30.23F
STATE COLLEGE  CLOUDY    59  39  47 S7        30.24F
WILLIAMSPORT   CLOUDY    62  36  37 VRB7G21   30.24F
SELINSGROVE    CLOUDY    62  40  44 VRB5      30.27F
FT INDIANTOWN  CLOUDY    64  33  32 SE7       30.27F
CAPITAL CITY   CLOUDY    64  38  38 SE10      30.28F
HARRISBURG     CLOUDY    63  41  44 S10       30.27F
YORK           CLOUDY    63  43  48 SE12      30.28F
$$

PAZ038>040-043-044-047-048-054-055-060>062-067>071-211900-
EASTERN PENNSYLVANIA

CITY           SKY/WX    TMP DP  RH WIND       PRES   REMARKS
SCRANTON       CLOUDY    67  36  31 VRB6      30.25F
MOUNT POCONO   CLOUDY    63  38  39 S12       30.29F
ALLENTOWN      CLOUDY    71  39  31 SE15G21   30.29F
QUAKERTOWN*    CLOUDY    68  39  34 S8G16     30.30F
READING        CLOUDY    67  40  37 S10       30.27F
LANCASTER      CLOUDY    65  40  39 SE14G21   30.28F
COATESVILLE    CLOUDY    66  43  42 VRB6G13   30.30F
POTTSTOWN      CLOUDY    68  37  32 S9        30.30F
BLUE BELL      CLOUDY    68  41  37 SE12G18   30.31F
DOYLESTOWN     CLOUDY    69  40  34 VRB7      30.29F
WILLOW GROVE   NOT AVBL
NORTH PHILA    MOSUNNY   71  41  33 SE7       30.32F
PHILADELPHIA   PTSUNNY   72  41  32 E14       30.30F
$$




USA.gov is the U.S. government's official web portal to all federal, state and local government web resources and services.